Change the Weather History Date:

Saturday, March 22, 2014

  Actual Average Record
Temperature  
Mean Temperature 59 °F 56 °F  
Max Temperature 72 °F 66 °F 86 °F (1995)
Min Temperature 45 °F 46 °F 26 °F (1956)
Degree Days  
Heating Degree Days 6 10  
Month to date heating degree days 330 262  
Since 1 July heating degree days 2354 2206  
Cooling Degree Days 0 0  
Month to date cooling degree days 0 0  
Year to date cooling degree days 0 0  
Growing Degree Days 8 (Base 50)    
Moisture  
Dew Point 54 °F    
Average Humidity 75    
Maximum Humidity 93    
Minimum Humidity 57    
Precipitation  
Precipitation T in 0.12 in 0.06 in (2003)
Month to date precipitation 2.20 2.75  
Year to date precipitation 6.32 9.86  
Sea Level Pressure  
Sea Level Pressure 30.03 in    
Wind  
Wind Speed 7 mph (SSW)    
Max Wind Speed 21 mph    
Max Gust Speed 26 mph    
Visibility 10 miles    
Events Rain , Thunderstorm    
T = Trace of Precipitation, MM = Missing Value Source: NWS Daily Summary

Daily Weather History Graph

Daily Weather History Graph

Search for Another Location

Airport or City:

Trip Planner

Search our weather history database for the weather conditions in past years. The results will help you decide how hot, cold, wet, or windy it might be!

Date:

Astronomy

Mar. 22, 2014 Rise Set
Actual Time 7:15 AM EDT 7:28 PM EDT
Civil Twilight 6:51 AM EDT 7:52 PM EDT
Nautical Twilight 6:21 AM EDT 8:22 PM EDT
Astronomical Twilight 5:52 AM EDT 8:51 PM EDT
Moon 12:32 AM EDT (3/22) 11:11 AM EDT (3/22)
Length of Visible Light 13h 01m
Length of Day
12h 12m
Waning Gibbous, 65% of the Moon is Illuminated
Mar 22
Waning Gibbous
Mar 23
Last Quarter
Mar 30
New
Apr 7
First Quarter
Apr 15
Full

Hourly Weather History & Observations

Time (EDT) Temp. Dew Point Humidity Pressure Visibility Wind Dir Wind Speed Gust Speed Precip Events Conditions
12:53 AM 46.0 °F 44.1 °F 93% 30.11 in 10.0 mi Calm Calm - N/A   Clear
1:53 AM 46.0 °F 45.0 °F 96% 30.09 in 10.0 mi Calm Calm - N/A   Clear
2:53 AM 46.0 °F 44.1 °F 93% 30.08 in 10.0 mi Calm Calm - N/A   Clear
3:53 AM 46.0 °F 44.1 °F 93% 30.07 in 10.0 mi Calm Calm - N/A   Clear
4:53 AM 46.9 °F 45.0 °F 93% 30.06 in 8.0 mi Calm Calm - N/A   Clear
5:53 AM 48.0 °F 46.0 °F 93% 30.07 in 9.0 mi Calm Calm - N/A   Clear
6:53 AM 48.0 °F 46.0 °F 93% 30.08 in 10.0 mi Calm Calm - N/A   Clear
8:53 AM 57.0 °F 54.0 °F 89% 30.09 in 10.0 mi Calm Calm - N/A   Mostly Cloudy
9:53 AM 66.0 °F 53.1 °F 63% 30.09 in 10.0 mi SSW 9.2 mph - N/A   Clear
10:53 AM 66.9 °F 52.0 °F 59% 30.09 in 10.0 mi SSW 10.4 mph - N/A   Clear
1:53 PM 69.1 °F 54.0 °F 58% 30.03 in 10.0 mi South 12.7 mph - N/A   Partly Cloudy
3:53 PM 68.0 °F 57.9 °F 70% 29.98 in 10.0 mi SSW 12.7 mph - N/A   Mostly Cloudy
4:53 PM 66.9 °F 59.0 °F 76% 29.98 in 10.0 mi SSW 13.8 mph - N/A   Mostly Cloudy
5:53 PM 68.0 °F 60.1 °F 76% 29.98 in 10.0 mi SSW 18.4 mph - N/A   Mostly Cloudy
6:20 PM 64.0 °F 59.0 °F 84% 29.97 in 10.0 mi South 15.0 mph - N/A Thunderstorm Mostly Cloudy
6:53 PM 63.0 °F 57.9 °F 84% 29.98 in 10.0 mi SSW 17.3 mph - N/A Thunderstorm Thunderstorm
7:08 PM 64.0 °F 60.1 °F 87% 29.98 in 10.0 mi SW 13.8 mph 24.2 mph N/A Thunderstorm Thunderstorm
7:23 PM 64.0 °F 61.0 °F 90% 29.98 in 10.0 mi SSW 18.4 mph - N/A Thunderstorm Thunderstorm
7:53 PM 63.0 °F 60.1 °F 90% 30.00 in 9.0 mi SW 19.6 mph 26.5 mph N/A Thunderstorm Thunderstorm
8:43 PM 66.0 °F 57.0 °F 73% 30.01 in 10.0 mi NW 4.6 mph - N/A Thunderstorm Mostly Cloudy
8:53 PM 64.9 °F 55.9 °F 73% 30.01 in 10.0 mi Calm Calm - N/A   Mostly Cloudy
9:04 PM 64.0 °F 57.0 °F 78% 30.01 in 10.0 mi SE 3.5 mph - N/A   Mostly Cloudy
9:53 PM 64.0 °F 57.9 °F 80% 30.01 in 10.0 mi Calm Calm - 0.00 in Rain Light Rain
10:53 PM 62.1 °F 60.1 °F 93% 30.02 in 10.0 mi NNE 3.5 mph - 0.00 in Rain Light Rain
11:53 PM 61.0 °F 59.0 °F 93% 30.02 in 7.0 mi Calm Calm - 0.00 in   Mostly Cloudy